| time (UTC) | temp F | wind direction | speed MPH | gust MPH | rain 1hr in | rain 24hr in | rain mn in | humidity % | barometer mb |
| 20260901021535 | 84 | 235 | 0.0 | 0.0 | 0.00 | 0.00 | 0.00 | 65 | 1010.6 |
| 20260901020035 | 85 | 235 | 0.0 | 0.0 | 0.00 | 0.00 | 0.00 | 63 | 1010.4 |
| 20260901014536 | 86 | 235 | 0.0 | 0.0 | 0.00 | 0.00 | 0.00 | 62 | 1010.4 |
| 20260901013033 | 87 | 235 | 0.0 | 0.0 | 0.00 | 0.00 | 0.00 | 60 | 1010.2 |
| 20260901011536 | 89 | 235 | 0.0 | 0.0 | 0.00 | 0.00 | 0.00 | 59 | 1010.1 |
| 20260901010039 | 90 | 235 | 0.0 | 0.0 | 0.00 | 0.00 | 0.00 | 58 | 1010.0 |
| 20260901004532 | 92 | 235 | 0.0 | 0.0 | 0.00 | 0.00 | 0.00 | 57 | 1009.9 |
| 20260901003031 | 94 | 235 | 0.0 | 2.0 | 0.00 | 0.00 | 0.00 | 55 | 1009.8 |
| 20260901001532 | 96 | 235 | 0.0 | 1.0 | 0.00 | 0.00 | 0.00 | 54 | 1009.8 |
| 20260901000035 | 96 | 235 | 0.0 | 0.0 | 0.00 | 0.00 | 0.00 | 53 | 1009.8 |
| 20260831234526 | 97 | 235 | 0.0 | 0.0 | 0.00 | 0.00 | 0.00 | 51 | 1009.8 |
| 20260831233021 | 98 | 235 | 0.0 | 0.0 | 0.00 | 0.00 | 0.00 | 48 | 1009.8 |
| 20260831231521 | 98 | 235 | 1.0 | 3.0 | 0.00 | 0.00 | 0.00 | 45 | 1009.8 |
| 20260831230020 | 98 | 235 | 2.0 | 5.0 | 0.00 | 0.00 | 0.00 | 43 | 1009.8 |
| 20260831224519 | 98 | 225 | 2.0 | 8.0 | 0.00 | 0.00 | 0.00 | 41 | 1009.7 |
| 20260831223024 | 99 | 259 | 3.0 | 9.0 | 0.00 | 0.00 | 0.00 | 42 | 1009.8 |
| 20260831221521 | 99 | 259 | 4.0 | 10.0 | 0.00 | 0.00 | 0.00 | 41 | 1009.8 |
| 20260831220018 | 99 | 245 | 3.0 | 8.0 | 0.00 | 0.00 | 0.00 | 42 | 1009.9 |
| 20260831214522 | 99 | 259 | 5.0 | 11.0 | 0.00 | 0.00 | 0.00 | 40 | 1009.9 |
| 20260831213017 | 99 | 237 | 3.0 | 12.0 | 0.00 | 0.00 | 0.00 | 40 | 1009.9 |
| 20260831211515 | 99 | 245 | 5.0 | 12.0 | 0.00 | 0.00 | 0.00 | 39 | 1009.9 |
| 20260831210030 | 100 | 207 | 7.0 | 15.0 | 0.00 | 0.00 | 0.00 | 38 | 1009.8 |
| 20260831204514 | 100 | 288 | 6.0 | 15.0 | 0.00 | 0.00 | 0.00 | 38 | 1009.9 |
| 20260831203013 | 100 | 238 | 6.0 | 16.0 | 0.00 | 0.00 | 0.00 | 39 | 1010.0 |
| 20260831201512 | 100 | 281 | 4.0 | 11.0 | 0.00 | 0.00 | 0.00 | 41 | 1010.0 |
| 20260831200008 | 99 | 238 | 5.0 | 12.0 | 0.00 | 0.00 | 0.00 | 40 | 1010.2 |
| 20260831194504 | 97 | 270 | 7.0 | 14.0 | 0.00 | 0.00 | 0.00 | 41 | 1010.2 |
| 20260831193004 | 96 | 307 | 5.0 | 11.0 | 0.00 | 0.00 | 0.00 | 45 | 1010.5 |
| 20260831191559 | 97 | 296 | 5.0 | 11.0 | 0.00 | 0.00 | 0.00 | 44 | 1010.6 |
| 20260831190058 | 96 | 222 | 5.0 | 12.0 | 0.00 | 0.00 | 0.00 | 45 | 1010.5 |
| 20260831184556 | 96 | 243 | 5.0 | 13.0 | 0.00 | 0.00 | 0.00 | 45 | 1010.6 |
| 20260831183059 | 96 | 236 | 6.0 | 14.0 | 0.00 | 0.00 | 0.00 | 43 | 1010.7 |
| 20260831181649 | 95 | 248 | 6.0 | 17.0 | 0.00 | 0.00 | 0.00 | 45 | 1010.9 |
| 20260831180045 | 95 | 288 | 6.0 | 14.0 | 0.00 | 0.00 | 0.00 | 47 | 1011.2 |
| 20260831174540 | 94 | 267 | 5.0 | 11.0 | 0.00 | 0.00 | 0.00 | 47 | 1011.3 |
| 20260831173038 | 94 | 238 | 7.0 | 15.0 | 0.00 | 0.00 | 0.00 | 46 | 1011.3 |
| 20260831171537 | 94 | 284 | 4.0 | 11.0 | 0.00 | 0.00 | 0.00 | 47 | 1011.5 |
| 20260831170036 | 93 | 219 | 6.0 | 13.0 | 0.00 | 0.00 | 0.00 | 47 | 1011.7 |
| 20260831164537 | 92 | 236 | 5.0 | 12.0 | 0.00 | 0.00 | 0.00 | 48 | 1011.8 |
| 20260831163028 | 91 | 255 | 6.0 | 12.0 | 0.00 | 0.00 | 0.00 | 49 | 1011.9 |
| 20260831161535 | 90 | 272 | 6.0 | 13.0 | 0.00 | 0.00 | 0.00 | 52 | 1011.9 |
| 20260831160020 | 89 | 234 | 6.0 | 12.0 | 0.00 | 0.00 | 0.00 | 54 | 1011.9 |
| 20260831154516 | 88 | 257 | 5.0 | 13.0 | 0.00 | 0.00 | 0.00 | 55 | 1012.0 |
| 20260831153013 | 86 | 232 | 4.0 | 13.0 | 0.00 | 0.00 | 0.00 | 59 | 1012.0 |
| 20260831151509 | 84 | 307 | 6.0 | 15.0 | 0.00 | 0.00 | 0.00 | 60 | 1012.0 |
| 20260831150005 | 82 | 254 | 4.0 | 10.0 | 0.00 | 0.00 | 0.00 | 64 | 1011.8 |
| 20260831144501 | 81 | 249 | 4.0 | 11.0 | 0.00 | 0.00 | 0.00 | 65 | 1011.8 |
| 20260831143059 | 80 | 200 | 3.0 | 10.0 | 0.00 | 0.00 | 0.00 | 66 | 1011.8 |
| 20260831141555 | 79 | 263 | 4.0 | 11.0 | 0.00 | 0.00 | 0.00 | 68 | 1011.8 |
| 20260831140054 | 77 | 309 | 3.0 | 10.0 | 0.00 | 0.00 | 0.00 | 72 | 1012.0 |
| 20260831134558 | 76 | 188 | 2.0 | 10.0 | 0.00 | 0.00 | 0.00 | 76 | 1012.0 |
| 20260831133046 | 74 | 256 | 1.0 | 5.0 | 0.00 | 0.00 | 0.00 | 80 | 1011.8 |
| 20260831131556 | 73 | 221 | 1.0 | 5.0 | 0.00 | 0.00 | 0.00 | 79 | 1011.7 |
| 20260831130046 | 72 | 234 | 1.0 | 5.0 | 0.00 | 0.00 | 0.00 | 79 | 1011.7 |
| 20260831124541 | 72 | 240 | 0.0 | 3.0 | 0.00 | 0.00 | 0.00 | 78 | 1011.5 |
| 20260831123037 | 72 | 241 | 0.0 | 1.0 | 0.00 | 0.00 | 0.00 | 77 | 1011.4 |
| 20260831121531 | 72 | 241 | 0.0 | 2.0 | 0.00 | 0.00 | 0.00 | 77 | 1011.4 |
| 20260831120028 | 72 | 241 | 0.0 | 3.0 | 0.00 | 0.00 | 0.00 | 77 | 1011.2 |
| 20260831114527 | 72 | 241 | 1.0 | 4.0 | 0.00 | 0.00 | 0.00 | 77 | 1011.1 |
| 20260831113024 | 72 | 240 | 0.0 | 5.0 | 0.00 | 0.00 | 0.00 | 76 | 1010.6 |
| 20260831111533 | 72 | 216 | 0.0 | 3.0 | 0.00 | 0.00 | 0.00 | 76 | 1010.6 |
| 20260831110022 | 73 | 217 | 0.0 | 3.0 | 0.00 | 0.00 | 0.00 | 75 | 1010.6 |
| 20260831104525 | 73 | 217 | 0.0 | 2.0 | 0.00 | 0.00 | 0.00 | 74 | 1010.5 |
| 20260831103020 | 73 | 217 | 0.0 | 0.0 | 0.00 | 0.00 | 0.00 | 74 | 1010.5 |
| 20260831101516 | 73 | 217 | 0.0 | 0.0 | 0.00 | 0.00 | 0.00 | 73 | 1010.5 |
| 20260831100017 | 74 | 217 | 0.0 | 0.0 | 0.00 | 0.00 | 0.00 | 73 | 1010.4 |
| 20260831094530 | 74 | 217 | 0.0 | 0.0 | 0.00 | 0.00 | 0.00 | 73 | 1010.4 |
| 20260831093033 | 74 | 217 | 0.0 | 2.0 | 0.00 | 0.00 | 0.00 | 72 | 1010.4 |
| 20260831091510 | 75 | 217 | 0.0 | 2.0 | 0.00 | 0.00 | 0.00 | 72 | 1010.3 |
| 20260831090008 | 0 | 0.0 | 0.0 | 0.00 | 0.00 | 0.00 | 1010.3 | ||
| 20260831084510 | 0 | 0.0 | 0.0 | 0.00 | 0.00 | 0.00 | 1010.3 | ||
| 20260831083110 | 0 | 0.0 | 0.0 | 0.00 | 0.00 | 0.00 | 1010.3 | ||
| 20260831081600 | 0 | 0.0 | 0.0 | 0.00 | 0.00 | 0.00 | 1010.4 | ||
| 20260831080123 | 0 | 0.0 | 0.0 | 0.00 | 0.00 | 0.00 | 1010.1 | ||
| 20260831074547 | 0 | 0.0 | 0.0 | 0.00 | 0.00 | 0.00 | 1009.9 | ||
| 20260831073042 | 0 | 0.0 | 0.0 | 0.00 | 0.00 | 0.00 | 1009.9 | ||
| 20260831071544 | 0 | 0.0 | 0.0 | 0.00 | 0.00 | 0.00 | 1009.9 | ||
| 20260831070035 | 0 | 0.0 | 0.0 | 0.00 | 0.00 | 0.00 | 1009.8 | ||
| 20260831064529 | 0 | 0.0 | 0.0 | 0.00 | 0.00 | 0.00 | 1009.8 | ||
| 20260831063025 | 0 | 0.0 | 0.0 | 0.00 | 0.00 | 0.00 | 1009.7 | ||
| 20260831061520 | 0 | 0.0 | 0.0 | 0.00 | 0.00 | 0.00 | 1009.8 | ||
| 20260831060016 | 0 | 0.0 | 0.0 | 0.00 | 0.00 | 0.00 | 1009.9 | ||
| 20260831054511 | 0 | 0.0 | 0.0 | 0.00 | 0.00 | 0.00 | 1010.0 | ||
| 20260831053007 | 0 | 0.0 | 0.0 | 0.00 | 0.00 | 0.00 | 1009.9 | ||
| 20260831051510 | 0 | 0.0 | 0.0 | 0.00 | 0.00 | 0.00 | 1009.9 | ||
| 20260831050059 | 0 | 0.0 | 0.0 | 0.00 | 0.00 | 0.00 | 1009.9 | ||
| 20260831050001 | 0 | 0.0 | 0.0 | 0.00 | 0.00 | 0.00 | 1009.8 | ||
| 20260831044639 | 0 | 0.0 | 0.0 | 0.00 | 0.00 | 0.00 | 1009.9 | ||
| 20260831043049 | 0 | 0.0 | 0.0 | 0.00 | 0.00 | 0.00 | 1010.1 | ||
| 20260831041550 | 0 | 0.0 | 0.0 | 0.00 | 0.00 | 0.00 | 1010.0 | ||
| 20260831040042 | 0 | 0.0 | 0.0 | 0.00 | 0.00 | 0.00 | 1010.1 | ||
| 20260831034536 | 0 | 0.0 | 0.0 | 0.00 | 0.00 | 0.00 | 1010.0 | ||
| 20260831033042 | 0 | 0.0 | 0.0 | 0.00 | 0.00 | 0.00 | 1009.9 | ||
| 20260831031535 | 0 | 0.0 | 0.0 | 0.00 | 0.00 | 0.00 | 1009.8 | ||
| 20260831030024 | 0 | 0.0 | 0.0 | 0.00 | 0.00 | 0.00 | 1009.7 | ||
| 20260831024519 | 0 | 0.0 | 0.0 | 0.00 | 0.00 | 0.00 | 1009.6 | ||
| 20260831023016 | 0 | 0.0 | 0.0 | 0.00 | 0.00 | 0.00 | 1009.6 |